SCP
0 0 -0 -0 -0 -0 -0 0 0 0 0 0 0 0 0 0 0 0 0 0 0 0 0 0 0 0 0 0 0 0 0 0 0 0 0 0 0 0 0 0 0 0 0 0
0 0 0 -0 -0 -0 0 0 0 0 0 0 0 0 0 0 0 0 0 0 0 0 0 0 0 0 0 0 0 0 0 0 0 0 0 0 0 0 0 0 0 0 0 0
0 0 0 0 0 0 0 0 0 0 0 0 0 0 0 0 0 0 0 0 0 0 0 0 0 0 0 0 0 0 0 0 0 0 0 0 0 0 0 0 0 0 0 0
0 0 0 0 0 0 0 0 -0 0 0 0 0 0 0 0 0 0 0 0 0 0 0 0 0 0 0 0 0 0 0 0 0 0 0 0 0 0 0 0 0 0 0 0
0 0 0 0 0 0 -0 -0 -0 0 0 0 0 0 0 0 0 0 0 0 0 0 0 0 0 0 0 0 0 0 0 0 0 0 0 0 0 0 0 0 0 0 0 0
0 0 0 0 0 0 0 0 0 0 0 0 0 0 0 0 0 0 0 0 0 0 0 0 0 0 0 0 0 0 0 0 0 0 0 0 0 0 0 0 0 0 0 0
0 0 0 0 0 0 0 0 0 0 0 0 0 0 0 0 0 0 0 0 0 0 0 0 0 0 0 0 0 0 0 0 0 0 0 0 0 0 0 0 0 0 0 0
0 0 0 0 0 0 0 0 0 0 0 0 0 0 0 0 0 0 0 0 0 0 0 0 0 0 0 0 0 0 0 0 0 0 0 0 0 0 0 0 0 0 0 0
0 0 0 0 0 0 0 0 0 0 0 0 0 0 0 0 0 0 0 0 0 0 0 0 0 0 0 0 0 0 0 0 0 0 0 0 0 0 0 0 0 0 0 0
0 0 0 0 0 0 0 0 0 0 0 0 0 0 0 0 0 0 0 0 0 0 0 0 0 0 0 0 0 0 0 0 0 0 0 0 0 0 0 0 0 0 0 0
0 0 0 0 0 0 0 0 0 0 0 0 0 0 0 0 0 0 0 0 0 0 0 0 0 0 0 0 0 0 0 0 0 0 0 0 0 0 0 0 0 0 0 0
0 0 0 0 0 0 0 0 0 0 0 0 0 0 0 0 0 0 0 0 0 0 0 0 0 0 0 0 0 0 0 0 0 0 0 0 0 0 0 0 0 0 0 0
0 0 0 0 0 0 0 0 0 0 0 0 0 0 0 0 0 0 0 0 0 0 0 0 0 0 0 0 0 0 0 0 0 0 0 0 0 0 0 0 0 0 0 0
0 0 0 0 0 0 0 0 0 0 0 0 0 0 0 0 0 0 0 0 0 0 0 0 0 0 0 0 0 0 0 0 0 0 0 0 0 0 0 0 0 0 0 0
0 0 0 0 0 0 0 0 0 0 0 0 0 0 0 0 0 0 0 0 0 0 0 0 0 0 0 0 0 0 0 0 0 0 0 0 0 0 0 0 0 0 0 0
0 0 0 0 0 0 0 0 0 0 0 0 0 0 0 0 0 0 0 0 0 0 0 0 0 0 0 0 0 0 0 0 0 0 0 0 0 0 0 0 0 0 0 0
0 0 0 0 0 0 0 0 0 0 0 0 0 0 0 0 0 0 0 0 0 0 0 0 0 0 0 0 0 0 0 0 0 0 0 0 0 0 0 0 0 0 0 0
0 0 0 0 0 0 0 0 0 0 0 0 0 0 0 0 0 0 0 0 0 0 0 0 0 0 0 0 0 0 0 0 0 0 0 0 0 0 0 0 0 0 0 0
0 0 0 0 0 0 0 0 0 0 0 0 0 0 0 0 0 0 0 0 0 0 0 0 0 0 0 0 0 0 0 0 0 0 0 0 0 0 0 0 0 0 0 0
0 0 0 0 0 0 0 0 0 0 0 0 0 0 0 0 0 0 0 0 0 0 0 0 0 0 0 0 0 0 0 0 0 0 0 0 0 0 0 0 0 0 0 0
0 0 0 0 0 0 0 0 0 0 0 0 0 0 0 0 0 0 0 0 0 0 0 0 0 0 0 0 0 0 0 0 0 0 0 0 0 0 0 0 0 0 0 0
0 0 0 0 0 0 0 0 0 0 0 0 0 0 0 0 0 0 0 0 0 0 0 -0 -0 0 0 0 0 0 0 0 0 0 0 0 0 0 0 0 0 0 0 0
0 0 0 0 0 0 0 0 0 0 0 0 0 0 0 0 0 0 0 0 0 0 0 0 0 0 0 0 0 0 0 0 0 0 0 0 0 0 0 0 0 0 0 0
0 0 0 0 0 0 0 0 0 0 0 0 0 0 0 0 0 0 0 0 0 0 0 0 0 0 0 0 0 0 0 0 0 0 0 0 0 0 0 0 0 0 0 0
0 0 0 0 0 0 0 0 0 0 0 0 0 0 0 0 0 0 0 0 0 0 0 0 0 0 0 0 0 0 0 0 0 0 0 0 0 0 0 0 0 0 0 0
0 0 0 0 0 0 0 0 0 0 0 0 0 0 0 0 0 0 0 0 0 0 0 0 0 0 0 0 0 0 0 0 0 0 0 0 0 0 0 0 0 0 0 0
0 0 0 0 0 0 0 0 0 0 0 0 0 0 0 0 0 0 0 0 0 0 0 0 0 0 0 0 0 0 0 0 0 0 0 0 0 0 0 0 0 0 0 0
Wind_Speed
6 5 3 5 7 5 7 8 9 8 8 10 8 8 6 5 5 4 4 5 6 6 5 5 5 5 5 6 5 4 4 5 6 7 6 7 7 8 8 8 9 8 9 9
3 2 3 5 6 4 5 4 6 4 8 7 3 3 3 5 6 7 7 7 7 7 6 6 6 6 5 6 5 4 5 6 7 6 6 7 7 8 8 8 8 8 9 9
4 4 3 5 4 3 4 5 7 8 8 3 4 7 8 8 8 9 9 8 8 7 7 7 6 6 6 6 5 4 6 7 7 6 7 8 8 8 8 9 8 9 9 9
2 1 4 9 4 4 4 4 6 6 5 6 7 5 4 6 9 9 9 8 8 7 6 6 5 5 5 5 5 5 6 7 7 6 7 8 8 8 9 8 8 9 9 10
4 3 6 9 4 5 4 5 5 6 5 3 3 3 4 7 9 10 9 8 8 7 6 5 6 5 4 5 5 5 7 7 7 6 7 8 9 9 8 8 9 9 9 10
4 4 6 10 4 3 4 5 6 7 7 6 6 2 8 7 9 9 8 6 6 5 4 5 6 4 4 6 5 7 7 7 7 6 7 9 9 9 8 8 9 9 10 9
4 4 9 9 2 5 3 10 6 10 10 11 11 11 6 4 7 9 8 7 6 6 5 7 5 4 5 6 7 8 6 6 7 7 7 8 8 8 8 8 8 9 10 9
4 3 8 3 6 8 11 5 4 9 11 13 13 8 5 5 7 8 8 7 7 6 7 6 5 5 6 8 8 6 6 6 7 7 7 7 7 8 8 7 8 8 8 9
8 8 8 4 8 8 4 5 6 9 10 13 11 9 8 8 9 9 9 8 7 7 7 6 5 6 7 8 6 5 5 7 7 8 7 7 7 8 8 6 6 7 6 7
4 9 8 7 7 7 7 9 9 9 9 11 12 11 11 9 9 9 9 8 7 7 7 7 6 7 8 7 5 4 6 7 6 7 8 7 6 6 6 6 6 7 7 7
5 9 8 8 6 6 6 6 6 6 8 11 12 11 11 10 10 10 9 7 7 8 9 9 6 7 7 6 4 5 6 6 7 6 7 7 7 6 7 7 7 8 7 7
8 8 4 7 8 6 5 5 6 5 5 5 9 10 9 9 8 8 8 7 7 8 8 8 6 7 6 5 5 5 5 6 5 5 6 6 7 8 8 9 11 11 11 9
7 4 2 6 7 7 4 5 3 3 5 5 5 6 6 6 5 5 6 7 9 9 9 7 7 7 6 5 5 5 6 6 5 5 6 6 6 7 9 9 9 8 8 8
5 3 5 7 7 9 7 6 4 3 3 2 2 1 1 2 2 4 7 9 8 7 7 6 7 8 6 4 5 6 6 7 6 5 6 6 6 6 6 7 8 7 6 7
12 8 4 5 9 12 11 11 12 10 8 7 4 3 1 2 4 6 6 4 4 5 6 6 7 8 5 5 5 6 5 4 5 5 5 6 6 6 6 6 6 6 6 5
6 10 11 13 14 14 15 15 13 11 10 8 7 5 3 2 3 3 3 4 5 7 8 7 9 8 5 5 5 4 4 8 7 5 5 5 5 5 6 6 6 6 6 5
13 14 12 12 12 12 12 11 10 10 10 9 8 6 4 3 3 4 4 5 7 8 7 8 9 6 5 5 5 4 4 5 8 6 5 5 5 5 5 5 6 6 6 5
6 5 5 5 6 8 9 9 9 9 9 8 7 5 4 3 5 6 5 4 5 6 8 8 7 6 6 6 5 4 3 4 4 5 5 5 5 5 5 5 6 6 5 5
7 7 7 7 6 6 7 7 7 7 7 7 7 6 5 6 6 6 5 4 6 9 9 7 8 7 6 7 6 4 4 4 4 4 4 5 5 4 4 5 5 5 5 5
6 6 7 7 7 7 7 7 7 7 7 6 6 6 6 7 7 6 6 6 8 7 6 5 6 6 7 6 6 3 4 4 4 4 4 4 4 4 4 4 5 5 5 4
6 6 7 7 7 7 7 7 6 7 7 6 6 6 7 8 7 6 5 8 8 6 6 7 6 5 5 5 6 4 3 3 3 3 3 3 4 4 4 4 4 4 4 4
5 5 7 7 7 7 7 6 5 6 6 6 7 6 7 8 8 7 7 7 8 8 6 5 5 6 7 7 4 4 3 3 3 3 3 3 3 3 4 4 4 4 4 4
5 5 7 7 6 7 8 6 5 5 6 6 7 7 7 7 6 6 8 7 7 8 6 4 5 7 9 5 4 3 3 3 2 2 2 2 3 3 3 4 4 4 4 4
6 7 7 7 6 5 6 7 6 5 6 6 6 6 6 6 7 6 6 10 11 9 5 4 5 6 7 3 3 2 2 2 2 2 2 2 2 2 3 3 4 4 4 5
7 7 6 6 6 5 6 6 7 6 6 5 7 8 6 4 6 7 8 9 9 6 3 2 4 5 4 3 3 2 1 0 1 1 1 2 2 3 3 3 4 4 4 4
6 6 6 6 6 6 5 4 4 5 5 5 6 6 6 6 7 7 6 7 7 4 2 1 2 4 3 3 3 2 2 1 1 2 2 2 3 3 3 4 5 4 4 4
7 6 5 6 6 5 4 4 5 6 5 5 6 7 7 7 7 7 8 6 4 2 0 1 2 3 3 3 3 3 3 2 2 2 2 2 3 3 3 4 4 4 4 4
Wind_Direction
235 245 247 255 263 206 193 194 191 228 228 247 231 217 214 200 182 179 196 209 218 226 238 251 261 267 267 270 272 273 275 274 273 277 279 280 281 281 281 279 278 275 276 276
280 269 267 263 268 235 211 197 212 242 258 250 225 169 192 197 188 202 215 222 226 230 236 244 249 257 265 269 270 269 269 272 277 282 283 282 282 284 285 284 282 279 276 274
258 303 355 296 257 227 222 207 185 210 240 204 180 197 208 206 201 209 217 222 225 227 230 236 242 245 253 262 271 271 269 274 279 279 282 283 287 290 287 286 283 283 280 275
186 44 250 250 252 220 221 236 212 229 242 205 209 211 222 201 198 212 218 221 226 226 230 236 238 243 253 265 268 268 272 275 277 277 281 286 288 288 286 284 283 282 281 279
139 187 273 294 264 175 178 261 219 215 223 173 103 57 299 222 202 209 212 213 218 217 218 228 238 242 252 266 268 271 272 274 276 276 282 288 289 288 286 285 286 283 282 281
138 166 228 251 256 161 112 282 235 191 190 164 127 162 256 231 202 215 218 214 215 214 212 230 241 232 239 258 266 267 269 273 276 276 278 282 283 284 283 282 283 287 286 281
167 206 256 254 203 129 171 244 224 190 188 171 184 204 225 210 197 206 210 213 208 203 213 228 232 214 238 254 258 260 269 275 277 276 276 277 279 280 284 286 288 288 287 285
148 184 260 246 147 183 217 234 206 196 192 190 211 223 232 221 211 207 209 211 201 202 224 233 220 210 237 250 254 263 271 275 279 281 282 285 283 287 287 286 290 292 292 293
187 216 241 235 217 237 217 228 225 205 204 199 209 222 222 221 218 214 210 210 201 202 224 238 224 208 231 248 255 265 273 278 283 289 287 284 284 290 295 291 287 290 291 292
248 270 268 271 261 257 227 228 233 213 201 189 203 216 216 218 217 215 214 211 201 198 219 237 232 221 229 245 250 256 270 280 286 292 296 297 291 283 285 289 291 291 291 293
257 275 300 304 288 278 273 255 250 229 203 198 203 214 211 214 215 213 212 206 194 201 218 232 233 234 237 238 235 251 267 277 286 287 289 298 297 286 281 274 267 276 285 284
238 248 228 271 293 314 299 275 248 221 219 212 204 216 213 218 218 210 208 198 200 210 221 232 232 238 242 232 221 238 264 277 283 291 295 297 301 306 290 276 282 274 262 262
260 292 269 282 321 335 316 298 284 217 212 216 220 218 213 220 217 207 207 202 209 215 220 226 230 241 245 231 220 230 250 269 282 288 294 299 300 303 311 314 307 295 285 283
333 355 17 358 343 349 357 354 14 21 0 342 291 265 227 230 211 206 218 219 216 215 218 223 232 243 242 223 223 239 252 268 276 280 287 291 293 294 295 302 311 314 309 299
27 44 49 10 19 21 20 26 32 21 10 5 9 11 318 228 228 231 233 221 210 221 229 227 235 246 232 211 222 239 251 264 273 279 283 287 289 292 294 297 298 303 310 311
36 45 40 36 30 24 25 25 22 10 4 359 359 347 313 273 263 253 236 201 203 228 233 229 236 240 219 208 220 238 250 268 280 282 290 295 297 300 303 305 306 307 308 311
46 33 21 21 18 18 20 19 14 5 2 359 350 347 353 344 312 283 262 231 224 233 234 232 239 233 210 206 213 231 248 272 288 290 286 289 294 298 301 303 304 305 303 301
60 47 31 17 5 2 3 5 5 1 355 343 344 356 348 311 282 277 281 277 265 261 249 237 233 218 207 206 209 219 237 258 275 283 288 292 296 296 298 301 306 308 310 314
38 29 18 11 357 350 349 348 344 337 333 337 344 339 318 302 294 291 288 273 265 267 265 240 224 212 212 211 204 209 228 254 274 280 284 295 302 304 308 310 311 313 313 318
20 7 358 351 350 345 336 331 329 327 326 330 334 335 330 318 310 303 292 273 258 255 261 245 221 214 212 208 199 203 222 245 265 280 289 297 305 309 313 316 317 320 321 321
354 345 342 338 330 325 321 321 323 323 324 331 332 322 313 309 310 307 301 293 285 272 262 241 223 214 204 195 193 199 216 236 254 269 284 296 305 312 319 322 323 326 328 329
327 324 323 320 319 315 313 313 313 315 321 325 325 323 321 318 315 309 288 274 286 288 275 250 231 209 197 187 182 192 210 227 245 265 281 294 305 313 322 326 328 332 331 331
310 306 308 308 305 299 304 309 316 318 317 315 313 313 309 301 299 297 302 299 302 293 281 259 233 205 188 177 178 188 204 221 239 261 280 295 305 314 320 328 333 336 338 338
301 300 297 298 302 304 306 306 310 306 301 299 296 295 296 303 305 293 287 299 303 299 287 262 221 191 174 169 168 177 195 223 249 270 289 306 320 327 331 338 341 341 342 345
291 292 295 304 305 291 284 292 303 303 307 306 304 303 297 280 280 295 303 306 307 304 295 245 192 171 163 152 151 150 154 195 303 303 316 332 339 342 346 349 349 345 346 350
284 283 280 273 267 266 271 275 276 281 287 294 298 299 302 302 299 300 305 307 308 304 297 249 150 145 135 127 120 110 94 58 29 5 355 355 352 354 355 355 354 355 356 356
283 279 278 285 282 269 264 264 265 271 270 270 280 289 297 304 308 312 313 310 311 307 306 115 117 117 114 109 100 90 77 58 36 15 1 0 359 358 357 358 359 2 4 5